LRAR Weather Reports


time (UTC)temp
F
wind
direction
speed
knots
gust
knots
rain 1hr
in
rain 24hr
in
rain mn
in
humidity
%
barometer
mb
20260507060338 61 240 4.3 0.0 0.00 0.00 0.00 77 1014.0
20260507054838 61 240 2.6 0.0 0.00 0.00 0.00 72 1014.0
20260507053346 61 240 2.6 0.0 0.00 0.00 0.00 72 1014.0
20260507051839 59 250 2.6 0.0 0.00 0.00 0.00 77 1013.0
20260507050338 59 250 2.6 0.0 0.00 0.00 0.00 77 1013.0
20260507044835 59 320 4.3 0.0 0.00 0.00 0.00 77 1013.0
20260507043338 59 320 4.3 0.0 0.00 0.00 0.00 77 1013.0
20260507041838 57 240 2.6 0.0 0.00 0.00 0.00 82 1012.0
20260507040338 57 240 2.6 0.0 0.00 0.00 0.00 82 1012.0
20260507034835 57 0.9 0.0 0.00 0.00 0.00 77 1012.0
20260507033338 57 0.9 0.0 0.00 0.00 0.00 77 1012.0
20260507031838 57 0 0.0 0.0 0.00 0.00 0.00 77 1012.0
20260507030338 57 0 0.0 0.0 0.00 0.00 0.00 77 1012.0
20260507024835 57 1.7 0.0 0.00 0.00 0.00 77 1012.0
20260507023338 57 1.7 0.0 0.00 0.00 0.00 77 1012.0
20260507021838 57 270 2.6 0.0 0.00 0.00 0.00 77 1012.0
20260507020338 57 270 2.6 0.0 0.00 0.00 0.00 77 1012.0
20260507014838 59 140 4.3 0.0 0.00 0.00 0.00 72 1011.0
20260507013338 59 140 4.3 0.0 0.00 0.00 0.00 72 1011.0
20260507011838 59 130 4.3 0.0 0.00 0.00 0.00 68 1011.0
20260507010338 59 130 4.3 0.0 0.00 0.00 0.00 68 1011.0
20260507004838 61 0.9 0.0 0.00 0.00 0.00 63 1011.0
20260507003339 61 0.9 0.0 0.00 0.00 0.00 63 1011.0
20260507001838 61 170 5.2 0.0 0.00 0.00 0.00 63 1011.0
20260507000338 61 170 5.2 0.0 0.00 0.00 0.00 63 1011.0
20260506234838 63 160 7.0 0.0 0.00 0.00 0.00 59 1011.0
20260506233338 63 160 7.0 0.0 0.00 0.00 0.00 59 1011.0
20260506231839 59 140 7.8 0.0 0.00 0.00 0.00 68 1011.0
20260506230338 59 140 7.8 0.0 0.00 0.00 0.00 68 1011.0
20260506224834 59 140 7.8 0.0 0.00 0.00 0.00 72 1011.0
20260506223338 59 140 7.8 0.0 0.00 0.00 0.00 72 1011.0
20260506221838 59 140 7.8 0.0 0.00 0.00 0.00 72 1011.0
20260506220337 59 140 7.8 0.0 0.00 0.00 0.00 72 1011.0
20260506214854 59 140 7.0 0.0 0.00 0.00 0.00 72 1011.0
20260506213338 59 140 7.0 0.0 0.00 0.00 0.00 72 1011.0
20260506211835 59 140 7.0 0.0 0.00 0.00 0.00 72 1011.0
20260506210338 59 140 7.0 0.0 0.00 0.00 0.00 72 1011.0
20260506204839 61 140 5.2 0.0 0.00 0.00 0.00 68 1011.0
20260506203338 61 140 5.2 0.0 0.00 0.00 0.00 68 1011.0
20260506201835 61 130 5.2 0.0 0.00 0.00 0.00 68 1011.0
20260506200338 61 130 5.2 0.0 0.00 0.00 0.00 68 1011.0
20260506194857 63 140 5.2 0.0 0.00 0.00 0.00 64 1011.0
20260506193402 63 140 5.2 0.0 0.00 0.00 0.00 64 1011.0
20260506191839 66 150 5.2 0.0 0.00 0.00 0.00 56 1011.0
20260506190338 66 150 5.2 0.0 0.00 0.00 0.00 56 1011.0
20260506184844 66 160 6.1 0.0 0.00 0.00 0.00 56 1011.0
20260506183338 66 160 6.1 0.0 0.00 0.00 0.00 56 1011.0
20260506181838 68 150 5.2 0.0 0.00 0.00 0.00 53 1010.0
20260506180339 68 150 5.2 0.0 0.00 0.00 0.00 53 1010.0
20260506174839 72 160 4.3 0.0 0.00 0.00 0.00 47 1010.0
20260506173338 72 160 4.3 0.0 0.00 0.00 0.00 47 1010.0
20260506171838 73 160 4.3 0.0 0.00 0.00 0.00 44 1010.0
20260506170338 73 160 4.3 0.0 0.00 0.00 0.00 44 1010.0
20260506164838 75 160 4.3 0.0 0.00 0.00 0.00 39 1010.0
20260506163338 75 160 4.3 0.0 0.00 0.00 0.00 39 1010.0
20260506161838 75 190 6.1 0.0 0.00 0.00 0.00 39 1011.0
20260506160339 75 190 6.1 0.0 0.00 0.00 0.00 39 1011.0
20260506154839 77 200 6.1 0.0 0.00 0.00 0.00 36 1011.0
20260506153338 77 200 6.1 0.0 0.00 0.00 0.00 36 1011.0
20260506151838 77 210 7.0 0.0 0.00 0.00 0.00 36 1011.0
20260506150344 77 210 7.0 0.0 0.00 0.00 0.00 36 1011.0
20260506144838 77 210 7.0 0.0 0.00 0.00 0.00 36 1011.0
20260506143350 77 210 7.0 0.0 0.00 0.00 0.00 36 1011.0
20260506141838 79 200 6.1 0.0 0.00 0.00 0.00 37 1012.0
20260506140457 79 200 6.1 0.0 0.00 0.00 0.00 37 1012.0
20260506134903 77 200 7.8 0.0 0.00 0.00 0.00 39 1012.0
20260506133338 77 200 7.8 0.0 0.00 0.00 0.00 39 1012.0
20260506131838 77 210 7.8 0.0 0.00 0.00 0.00 39 1012.0
20260506130347 77 210 7.8 0.0 0.00 0.00 0.00 39 1012.0
20260506124839 77 210 9.6 0.0 0.00 0.00 0.00 39 1012.0
20260506123338 77 210 9.6 0.0 0.00 0.00 0.00 39 1012.0
20260506121839 77 200 9.6 0.0 0.00 0.00 0.00 39 1013.0
20260506120338 77 200 9.6 0.0 0.00 0.00 0.00 39 1013.0
20260506114838 77 210 7.8 0.0 0.00 0.00 0.00 42 1013.0
20260506113339 77 210 7.8 0.0 0.00 0.00 0.00 42 1013.0
20260506111838 75 200 5.2 0.0 0.00 0.00 0.00 41 1013.0
20260506110338 75 200 5.2 0.0 0.00 0.00 0.00 41 1013.0
20260506104838 75 170 7.0 0.0 0.00 0.00 0.00 41 1013.0
20260506103338 75 170 7.0 0.0 0.00 0.00 0.00 41 1013.0
20260506101839 75 190 8.7 0.0 0.00 0.00 0.00 44 1014.0
20260506100338 75 190 8.7 0.0 0.00 0.00 0.00 44 1014.0
20260506094838 73 230 7.8 0.0 0.00 0.00 0.00 47 1014.0
20260506093338 73 230 7.8 0.0 0.00 0.00 0.00 47 1014.0
20260506091838 73 220 7.8 0.0 0.00 0.00 0.00 44 1014.0
20260506090338 73 220 7.8 0.0 0.00 0.00 0.00 44 1014.0
20260506084838 72 190 7.0 0.0 0.00 0.00 0.00 47 1014.0
20260506083338 72 190 7.0 0.0 0.00 0.00 0.00 47 1014.0
20260506081835 70 170 7.0 0.0 0.00 0.00 0.00 50 1014.0
20260506080338 70 170 7.0 0.0 0.00 0.00 0.00 50 1014.0
20260506073338 68 200 6.1 0.0 0.00 0.00 0.00 53 1014.0
20260506071838 68 200 6.1 0.0 0.00 0.00 0.00 49 1014.0
20260506070338 68 200 6.1 0.0 0.00 0.00 0.00 49 1014.0
20260506061838 61 190 6.1 0.0 0.00 0.00 0.00 63 1014.0